Temp
6 5 5 5 5 5 5 5 5 5 5 5 5 4 4 5 5 5 4 4 3 2 2 2 2 2 3 3 3 3 3 3 4 4 4 4 4 4 4 4 3 3 3 3
5 5 5 5 5 5 5 5 5 5 5 5 4 5 4 5 5 5 4 4 3 3 2 2 2 2 3 3 3 3 4 4 4 3 3 3 3 4 3 3 3 3 3 3
5 5 6 5 5 5 4 5 5 5 4 4 5 5 5 5 5 4 4 3 3 2 2 2 1 2 2 2 3 3 3 3 3 3 3 3 4 3 2 3 3 3 3 3
4 5 5 5 5 5 5 5 5 5 4 6 4 8 5 5 5 4 3 3 2 2 1 1 1 1 1 2 2 3 3 3 3 3 3 3 3 3 3 2 4 3 2 3
5 5 5 5 5 5 5 5 5 4 3 3 4 4 7 5 5 4 3 3 2 2 1 1 1 2 2 2 2 2 3 3 3 3 2 2 2 2 3 3 3 3 2 2
5 5 5 5 5 4 4 4 4 4 3 6 6 5 8 5 4 4 4 3 2 1 1 1 1 2 2 2 2 2 3 2 3 3 2 2 2 2 2 2 2 2 2 2
4 5 4 4 4 4 4 3 6 6 5 8 3 3 6 5 5 5 4 3 2 2 1 1 1 1 2 2 3 3 2 2 2 2 2 1 1 1 2 1 1 1 -0 1
5 5 5 5 4 4 5 4 5 5 7 6 3 4 5 5 5 5 4 3 3 2 2 1 1 1 2 2 3 3 3 3 3 3 3 3 2 1 1 2 2 1 1 1
5 5 6 4 5 4 4 3 4 4 3 4 5 4 5 5 5 5 4 4 3 3 2 2 2 2 2 2 2 3 3 3 3 3 3 3 3 3 3 2 2 2 2 2
6 5 5 4 4 4 4 4 4 4 4 7 8 6 8 6 6 5 5 4 4 3 3 2 2 2 2 2 3 3 3 3 3 3 3 2 3 3 4 3 2 2 1 2
5 5 3 3 3 4 4 3 4 4 4 9 10 10 7 6 6 5 5 5 4 4 4 3 3 2 1 2 2 2 2 2 2 2 2 0 1 2 3 2 2 2 2 1
5 5 5 4 3 4 4 4 4 6 6 5 5 8 7 6 6 6 5 5 5 4 4 4 4 3 2 1 2 2 2 2 2 2 2 0 1 2 2 1 1 1 2 2
5 4 5 3 3 3 4 4 4 4 5 5 8 9 7 6 6 6 5 5 4 4 4 4 3 2 0 2 2 1 1 2 2 2 2 2 1 1 1 1 1 2 1 1
5 5 6 8 8 6 4 5 5 4 5 7 6 7 7 7 6 6 6 5 4 4 4 4 4 2 0 1 2 1 1 2 1 2 1 1 1 1 1 1 1 1 0 0
3 4 5 6 7 7 7 6 6 4 5 6 8 7 6 6 6 6 5 5 5 4 4 4 4 3 2 2 1 1 1 2 2 1 1 1 2 1 1 1 1 1 0 1
3 4 5 4 6 6 6 7 6 6 5 5 5 7 7 6 5 5 6 6 5 5 4 4 4 3 3 2 2 1 1 1 1 2 2 2 1 1 1 1 1 1 2 2
1 3 5 5 5 5 4 6 6 7 8 8 6 9 8 7 6 6 6 6 6 5 5 4 4 3 3 2 2 2 2 1 1 1 1 1 1 1 1 2 2 2 2 2
-1 1 3 5 2 4 7 7 7 8 8 8 8 8 8 7 6 6 6 5 6 6 5 4 4 4 3 3 3 2 2 2 2 2 2 2 1 1 2 1 1 1 1 1
-0 -0 2 3 3 6 6 6 7 8 9 9 10 9 8 7 6 7 6 6 6 6 5 5 4 4 3 3 3 3 3 2 2 2 2 2 2 1 1 1 1 1 1 1
0 0 2 2 4 5 6 7 7 7 7 9 9 9 9 7 7 8 7 6 6 6 5 5 5 5 4 4 3 3 3 3 2 2 2 2 1 1 1 1 1 1 1 1
-1 -1 0 2 4 5 6 7 7 6 8 10 10 9 9 9 9 7 7 6 6 6 6 6 5 5 4 4 3 3 3 3 2 2 2 2 1 1 1 1 1 1 0 0
0 -0 0 2 3 4 6 7 7 9 9 9 10 10 10 8 8 8 7 7 6 6 6 6 5 5 5 4 3 3 3 2 2 2 2 1 1 1 1 1 0 0 -0 -0
-1 1 2 2 3 5 6 7 8 8 9 9 9 9 9 9 8 8 7 7 6 6 6 6 5 5 4 4 4 3 3 3 2 2 2 1 1 1 0 0 0 0 -0 -0
-2 1 2 3 3 6 6 6 7 7 8 8 9 9 9 9 8 8 7 7 6 6 6 5 5 5 5 4 4 3 3 3 2 2 1 1 1 1 1 0 0 0 -0 -0
-0 -1 1 2 3 4 6 7 6 7 7 8 8 8 8 8 8 8 8 7 6 6 6 5 5 5 4 4 3 3 3 3 2 2 2 1 1 1 1 1 0 -0 -0 -1
-1 0 0 2 3 4 5 7 6 7 7 7 7 8 8 8 8 8 7 7 7 6 6 5 5 4 4 4 3 3 3 2 2 2 2 1 1 1 0 0 -0 -1 -1 -1
Height
3131 3133 3131 3134 3134 3133 3132 3131 3130 3129 3126 3123 3121 3119 3117 3114 3112 3111 3108 3105 3100 3095 3087 3079 3074 3074 3074 3078 3082 3089 3095 3099 3101 3104 3106 3106 3104 3103 3103 3106 3108 3115 3121 3127
3128 3126 3129 3128 3129 3129 3128 3128 3127 3124 3122 3121 3118 3114 3113 3109 3108 3106 3104 3100 3094 3088 3079 3072 3069 3068 3068 3072 3076 3081 3087 3092 3097 3100 3103 3102 3101 3101 3101 3104 3108 3114 3119 3125
3123 3125 3123 3124 3125 3125 3124 3124 3125 3123 3120 3117 3113 3109 3106 3105 3104 3102 3100 3095 3089 3083 3077 3072 3068 3067 3067 3070 3073 3077 3083 3089 3094 3097 3099 3098 3097 3095 3096 3099 3104 3111 3116 3124
3119 3119 3118 3119 3120 3122 3123 3120 3120 3119 3119 3118 3114 3108 3104 3102 3101 3100 3096 3091 3087 3083 3079 3074 3072 3070 3070 3072 3074 3078 3083 3089 3091 3094 3095 3095 3093 3090 3092 3097 3100 3106 3113 3120
3116 3113 3113 3114 3115 3118 3120 3118 3117 3116 3116 3115 3111 3111 3101 3100 3099 3097 3093 3089 3087 3084 3081 3078 3075 3075 3075 3076 3079 3081 3085 3088 3089 3091 3092 3092 3090 3090 3090 3094 3098 3103 3111 3116
3110 3109 3110 3111 3112 3113 3114 3116 3115 3114 3114 3110 3105 3107 3097 3098 3097 3094 3091 3087 3086 3084 3083 3080 3079 3078 3079 3081 3082 3083 3085 3086 3089 3090 3090 3091 3089 3090 3091 3093 3099 3103 3109 3115
3103 3102 3105 3107 3109 3110 3111 3115 3114 3111 3110 3100 3102 3103 3095 3094 3093 3091 3089 3086 3085 3084 3084 3082 3081 3082 3082 3083 3085 3085 3086 3087 3088 3089 3089 3087 3088 3090 3091 3095 3099 3103 3108 3113
3097 3097 3096 3098 3102 3106 3105 3110 3110 3105 3101 3100 3101 3096 3092 3090 3090 3088 3087 3085 3084 3084 3084 3083 3083 3083 3084 3085 3086 3086 3087 3088 3089 3090 3091 3091 3093 3094 3093 3097 3100 3105 3110 3113
3091 3091 3089 3092 3094 3101 3101 3103 3105 3105 3102 3100 3093 3090 3088 3087 3087 3086 3085 3084 3084 3083 3083 3083 3083 3084 3084 3086 3086 3086 3087 3087 3088 3089 3090 3092 3093 3096 3098 3098 3102 3105 3109 3109
3084 3087 3085 3088 3091 3093 3095 3097 3102 3102 3100 3090 3084 3085 3081 3082 3084 3084 3083 3083 3082 3083 3083 3083 3083 3083 3084 3084 3085 3086 3086 3087 3088 3088 3087 3089 3092 3096 3098 3099 3102 3107 3110 3110
3078 3081 3083 3084 3084 3084 3087 3090 3092 3094 3092 3084 3078 3077 3077 3079 3081 3081 3082 3082 3081 3081 3082 3082 3082 3082 3083 3084 3085 3086 3087 3088 3089 3088 3088 3089 3091 3094 3096 3100 3102 3104 3107 3109
3067 3073 3076 3078 3077 3080 3082 3084 3086 3087 3087 3085 3083 3078 3075 3077 3078 3079 3080 3080 3080 3080 3080 3081 3081 3082 3082 3083 3084 3086 3088 3089 3090 3089 3089 3090 3093 3095 3096 3098 3101 3104 3106 3108
3058 3064 3070 3074 3076 3074 3071 3073 3078 3081 3081 3080 3078 3072 3072 3074 3075 3077 3078 3079 3079 3078 3079 3079 3080 3081 3082 3083 3084 3086 3088 3090 3091 3091 3093 3095 3095 3097 3099 3100 3100 3101 3104 3106
3054 3055 3054 3055 3058 3061 3061 3063 3068 3073 3075 3073 3069 3069 3069 3071 3072 3073 3075 3077 3077 3077 3078 3079 3079 3080 3082 3083 3085 3088 3089 3089 3091 3093 3094 3094 3096 3098 3101 3101 3102 3103 3106 3108
3048 3047 3049 3051 3054 3054 3055 3055 3059 3062 3065 3068 3065 3064 3066 3067 3069 3071 3072 3074 3075 3076 3076 3078 3080 3081 3082 3083 3086 3088 3091 3092 3093 3094 3095 3096 3099 3101 3103 3103 3102 3104 3106 3107
3039 3041 3043 3045 3048 3050 3051 3052 3054 3057 3060 3059 3060 3058 3063 3064 3064 3065 3068 3070 3073 3075 3075 3077 3079 3081 3082 3084 3086 3088 3090 3092 3093 3095 3096 3097 3099 3101 3101 3101 3102 3104 3104 3106
3032 3035 3037 3039 3042 3045 3045 3041 3047 3050 3051 3052 3053 3055 3056 3057 3059 3061 3064 3067 3070 3073 3074 3076 3079 3081 3083 3084 3086 3088 3090 3092 3093 3095 3097 3098 3099 3100 3101 3102 3103 3104 3105 3106
3023 3029 3032 3033 3037 3038 3029 3033 3038 3042 3045 3045 3046 3049 3053 3055 3056 3057 3061 3064 3066 3069 3072 3074 3077 3080 3082 3084 3086 3088 3090 3092 3094 3095 3096 3098 3100 3101 3102 3103 3104 3105 3105 3105
3014 3022 3026 3027 3027 3024 3022 3026 3030 3034 3036 3038 3039 3044 3047 3050 3052 3052 3055 3059 3063 3067 3070 3073 3075 3078 3080 3083 3085 3088 3089 3091 3093 3095 3097 3099 3100 3102 3103 3104 3105 3105 3104 3104
3005 3010 3020 3019 3019 3014 3019 3021 3024 3029 3028 3032 3034 3037 3040 3043 3044 3047 3051 3055 3058 3062 3065 3069 3071 3075 3078 3080 3083 3086 3088 3090 3093 3095 3097 3099 3101 3102 3103 3103 3103 3103 3102 3102
2995 3001 3005 3009 3010 3008 3010 3016 3021 3025 3027 3026 3030 3032 3034 3037 3043 3044 3047 3051 3056 3060 3062 3066 3069 3073 3076 3078 3081 3083 3086 3088 3091 3093 3095 3097 3098 3099 3100 3101 3101 3101 3101 3101
2985 2991 2995 3003 3005 3005 3004 3009 3013 3019 3019 3023 3025 3028 3032 3035 3037 3040 3043 3047 3052 3056 3059 3063 3066 3069 3072 3076 3078 3081 3084 3086 3088 3090 3092 3094 3095 3097 3098 3098 3099 3099 3099 3099
2978 2977 2985 2989 2988 2997 3001 3007 3012 3013 3015 3020 3023 3026 3028 3031 3034 3038 3041 3045 3050 3054 3058 3061 3064 3067 3070 3073 3076 3078 3080 3084 3086 3088 3090 3091 3092 3093 3094 3095 3095 3096 3096 3096
2966 2970 2976 2984 2985 2994 2996 3001 3006 3010 3013 3016 3019 3023 3026 3029 3032 3036 3039 3044 3048 3051 3054 3058 3061 3065 3068 3071 3073 3076 3077 3080 3083 3084 3086 3088 3090 3091 3092 3093 3093 3093 3093 3092
2957 2966 2968 2973 2980 2986 2992 2998 3002 3006 3011 3014 3017 3021 3024 3027 3030 3034 3038 3042 3046 3050 3052 3056 3059 3063 3065 3068 3071 3072 3075 3077 3079 3081 3083 3084 3086 3087 3089 3089 3089 3089 3089 3088
2949 2955 2960 2963 2975 2981 2987 2994 2999 3003 3007 3011 3015 3018 3022 3025 3029 3032 3036 3040 3044 3048 3051 3054 3057 3059 3063 3065 3067 3069 3071 3073 3075 3077 3078 3080 3081 3082 3082 3083 3084 3084 3084 3084
Wind_Speed
16 17 16 13 14 16 14 11 13 12 14 18 13 15 14 19 21 23 25 25 33 35 33 36 33 22 20 20 26 28 30 32 26 25 25 22 18 17 19 21 34 38 40 41
18 21 16 17 18 17 17 13 15 14 12 15 13 18 18 22 21 21 20 29 32 31 23 17 15 12 11 14 20 25 27 28 26 23 24 23 22 16 18 29 36 38 39 39
19 12 7 13 17 20 18 16 14 14 14 17 16 14 8 6 11 14 21 27 26 20 13 10 8 3 4 8 13 20 26 24 21 21 24 20 19 23 26 39 36 36 39 38
18 20 24 24 21 15 16 16 16 13 8 8 7 5 9 13 10 14 21 24 15 9 10 13 10 8 8 10 15 21 24 21 17 22 21 16 16 20 27 40 38 42 36 38
12 11 11 15 19 18 13 15 13 13 12 12 10 7 6 8 9 14 17 15 5 7 9 12 11 9 8 13 14 14 17 16 18 20 18 16 17 5 22 37 38 39 37 34
23 22 15 11 11 16 17 13 13 13 7 8 8 6 5 7 7 12 12 7 1 8 7 10 10 9 9 11 11 12 12 13 15 16 15 16 14 14 12 18 26 35 32 32
23 31 28 23 14 16 16 9 4 5 5 2 5 6 10 10 9 9 7 5 1 6 3 3 7 6 8 8 9 9 8 6 5 14 7 11 6 8 14 17 32 30 29 30
22 11 29 30 25 14 19 15 7 4 3 1 7 8 5 11 7 6 4 2 2 2 3 6 6 7 8 7 6 3 2 3 5 4 3 4 4 9 9 13 15 23 28 32
13 12 13 18 24 23 17 16 15 5 8 4 7 7 10 12 7 5 4 1 0 1 5 8 8 7 6 5 4 7 9 8 7 7 9 9 11 12 12 10 15 21 15 18
16 5 13 19 18 24 18 13 7 9 4 5 6 7 9 11 7 5 6 4 3 2 3 8 11 10 8 8 10 11 10 8 3 6 10 13 11 11 14 14 14 14 14 17
27 15 7 19 23 21 31 21 13 8 6 3 3 3 7 9 6 4 9 6 5 4 4 8 12 13 13 11 10 12 11 8 6 4 8 12 14 13 11 15 13 11 10 11
38 19 16 19 19 24 20 20 22 13 7 8 3 4 10 10 6 5 10 8 7 5 5 7 9 11 13 13 11 11 11 10 7 6 5 12 15 12 13 13 12 8 5 9
41 21 15 7 16 23 30 32 26 21 11 12 5 3 11 12 8 7 6 8 10 9 7 6 8 9 8 9 10 11 9 6 10 6 10 11 13 16 15 15 16 15 14 15
28 26 35 22 11 17 26 34 34 28 18 13 19 6 12 14 10 6 6 6 10 12 11 10 9 10 10 10 10 11 6 6 9 6 11 12 15 13 12 11 11 11 6 9
28 27 32 25 23 14 15 24 33 34 29 19 8 15 16 16 14 10 10 9 8 12 11 13 12 12 12 9 12 11 12 14 12 11 12 14 15 14 12 11 9 8 8 6
37 20 29 28 29 20 17 15 18 25 31 32 26 25 17 16 19 18 14 11 10 11 12 17 14 16 14 15 15 14 12 13 12 12 12 11 11 9 7 6 5 3 1 4
31 29 26 26 28 27 24 37 29 27 27 28 28 13 12 21 26 21 16 14 12 11 14 17 15 16 16 16 17 16 14 12 8 11 12 12 12 10 8 6 5 4 4 4
27 31 26 16 15 11 24 20 24 30 29 30 28 22 13 11 13 24 19 15 15 15 15 17 16 17 18 17 16 16 16 15 13 12 11 10 9 9 8 7 6 5 3 2
32 29 26 17 22 11 25 25 24 26 28 28 25 22 21 21 18 20 26 23 16 15 14 14 15 16 16 17 17 16 15 15 14 13 12 11 10 8 8 7 5 3 2 1
31 36 37 16 15 13 22 7 20 25 27 24 19 20 24 27 27 22 23 26 23 20 21 19 18 17 18 17 17 16 15 15 14 13 13 12 11 8 6 5 3 1 2 3
33 32 36 37 19 14 20 22 22 16 14 18 18 18 20 17 11 16 22 26 22 19 20 20 19 15 15 16 16 16 15 15 14 14 13 12 10 8 6 4 3 2 2 3
38 27 26 36 28 17 23 25 32 25 16 9 16 15 13 15 20 20 21 25 24 21 21 20 18 18 17 17 16 16 15 15 15 14 13 12 10 9 7 6 5 5 5 6
31 32 32 32 36 16 19 21 19 20 19 24 12 13 18 20 21 18 20 23 22 20 18 19 19 19 18 17 16 16 16 13 13 13 12 12 12 11 10 9 8 8 8 9
38 36 34 31 31 28 17 29 28 21 7 18 19 16 15 16 19 20 20 21 21 20 20 19 20 20 19 18 17 18 18 17 16 16 15 14 14 13 13 12 12 11 11 12
43 39 32 32 26 36 40 17 18 20 17 17 17 16 17 19 19 19 20 20 19 18 18 19 18 17 17 18 19 20 19 18 18 18 18 17 16 15 15 15 14 14 14 14
42 43 42 37 27 28 32 39 26 15 16 19 18 17 20 20 19 20 21 19 19 18 17 17 18 19 19 19 20 20 20 19 19 19 19 18 17 18 18 17 16 16 16 16
Wind_Direction
249 244 239 242 241 245 258 262 270 276 278 287 282 271 267 274 273 275 287 294 299 304 304 295 292 290 266 240 231 228 229 235 234 234 236 242 251 254 228 215 181 189 194 186
245 250 249 246 247 251 254 261 272 285 281 284 288 285 276 275 273 276 286 304 311 320 317 310 298 279 246 224 223 222 224 229 222 225 229 240 241 260 238 204 191 197 196 188
237 247 250 237 254 248 251 252 264 278 283 290 294 290 268 244 282 278 301 316 326 343 2 13 21 53 159 199 203 207 201 197 211 217 227 240 237 252 230 206 192 195 194 192
254 245 249 252 253 246 248 261 266 271 282 289 280 298 262 266 280 286 314 326 346 26 51 53 53 79 116 150 168 177 185 201 209 211 223 226 229 243 208 198 205 192 187 186
238 245 244 251 245 234 240 261 263 269 272 284 255 243 235 242 280 298 324 336 38 72 61 62 82 86 107 138 151 169 190 200 196 211 219 222 236 247 197 191 195 188 186 187
235 244 246 244 238 218 237 257 264 272 260 255 223 224 236 224 266 306 335 336 124 104 81 71 77 113 121 143 156 172 193 202 200 211 225 227 234 235 178 209 196 184 186 194
234 243 246 242 230 218 226 220 248 228 207 289 192 230 250 233 279 306 335 333 14 120 126 104 101 91 132 153 168 177 176 176 201 210 259 250 231 162 195 174 192 188 195 211
216 229 236 237 224 224 226 210 218 257 225 176 222 236 240 220 262 292 310 2 349 225 176 168 139 136 134 137 149 170 215 135 164 184 217 226 219 233 227 181 158 194 198 215
219 221 223 220 223 213 220 214 223 254 279 267 217 245 249 236 241 258 251 183 147 64 199 197 187 173 152 154 146 160 157 158 167 185 191 191 190 198 208 203 177 178 216 221
223 228 219 214 205 210 208 212 197 209 231 242 203 242 225 204 215 227 222 217 200 229 242 201 193 181 182 177 157 157 162 159 173 240 214 192 181 181 197 197 185 208 226 208
215 211 216 203 211 206 207 216 210 207 221 286 282 186 209 201 203 209 203 212 221 229 230 200 184 180 174 171 158 157 158 143 107 66 187 161 151 155 160 185 206 213 221 210
213 216 218 216 228 215 215 221 215 221 213 224 273 262 215 207 205 196 196 205 221 217 213 188 171 173 178 181 180 172 165 145 149 108 119 166 159 167 159 157 165 164 198 212
211 208 193 211 232 226 221 220 219 222 228 225 232 190 208 206 211 208 198 210 211 202 214 203 175 164 163 163 162 150 150 162 178 164 149 163 160 158 149 155 156 156 174 191
223 215 210 216 226 212 218 219 220 217 223 225 227 221 206 206 207 228 221 218 208 200 198 202 189 167 160 155 160 157 166 164 165 174 153 159 159 168 177 162 162 151 177 188
211 219 217 219 228 236 234 230 220 214 218 214 254 239 230 238 253 252 233 221 217 202 196 193 186 175 166 165 154 160 145 144 152 145 142 142 148 158 162 159 151 156 179 193
208 220 221 224 225 227 224 215 218 232 229 239 246 255 232 225 226 228 227 221 214 199 182 176 168 168 164 155 155 161 158 151 148 146 146 144 143 143 138 136 138 154 185 247
220 215 211 221 224 229 244 233 231 233 236 236 237 251 236 226 232 231 223 220 208 201 182 171 168 168 167 163 163 164 164 166 167 155 150 148 147 144 140 138 146 168 197 226
221 220 219 210 176 215 241 229 233 244 251 251 253 249 238 232 225 229 218 215 212 201 194 183 179 175 174 171 170 171 170 169 167 164 155 149 145 145 146 146 146 155 166 179
218 220 215 206 211 237 235 225 223 232 243 239 243 239 224 225 224 220 207 209 207 204 200 193 183 183 180 175 171 172 170 167 164 164 159 156 157 157 154 154 157 156 139 79
223 215 214 202 215 223 225 202 217 227 248 229 228 214 209 213 222 224 214 207 207 202 200 202 197 190 188 185 179 176 172 170 169 168 167 168 169 168 162 157 145 107 40 8
214 214 210 218 224 229 221 214 211 197 226 226 223 218 215 222 219 213 206 204 210 213 211 206 203 200 196 192 188 185 183 182 184 182 182 182 184 187 191 202 218 240 283 307
203 192 211 214 219 239 205 198 202 221 215 201 202 208 203 187 195 204 200 197 204 208 206 209 210 207 206 201 199 196 196 199 195 196 199 201 204 211 222 236 253 267 284 296
213 208 210 204 208 205 213 207 207 222 226 218 217 198 192 196 201 195 194 197 200 205 207 207 208 210 212 214 212 209 217 218 217 218 220 222 226 231 239 250 265 280 292 298
212 210 217 217 211 199 194 211 210 210 191 200 200 195 195 191 185 189 186 189 194 198 199 202 207 209 212 217 219 219 226 226 227 228 232 239 245 251 258 266 273 279 286 290
219 220 214 216 215 211 216 214 203 215 203 198 193 188 184 184 184 184 183 183 187 193 199 203 206 208 211 216 221 228 234 235 237 240 242 243 247 252 258 263 265 272 278 281
214 217 219 216 210 212 210 217 227 211 204 202 199 201 193 185 187 185 182 182 187 190 196 199 201 204 207 212 221 228 234 237 238 243 246 249 250 249 250 253 261 268 273 278